This demonstration page uses our WeatherBlox Daily Observations layout. Learn more.

Left ArrowRight Arrow

39.29038, -76.61219

Hourly Observations for May 3, 2020

Temp ( °F °C ) Dew Point ( °F °C ) Humidity (%) Winds ( mph kmh ) Pressure ( in mb ) Visibility ( mi km ) Precip ( " mm )
12:54 am 00:54 undefined 62 16.7 43 6.1 50 50 undefined N/A 29.92 1013 N/A N/A
1:54 am 01:54 undefined 61 16.1 44 6.7 54 54 undefined N/A 29.88 1012 N/A N/A
2:54 am 02:54 undefined 61 16.1 45 7.2 56 56 undefined N/A 29.86 1011 N/A N/A
3:54 am 03:54 undefined 62 16.7 46 7.8 56 56 undefined N/A 29.83 1010 N/A N/A
4:54 am 04:54 undefined 63 17.2 47 8.3 56 56 undefined N/A 29.84 1011 N/A N/A
5:54 am 05:54 undefined 62 16.7 46 7.8 56 56 undefined N/A 29.85 1011 N/A N/A
6:54 am 06:54 undefined 61 16.1 49 9.4 65 65 undefined N/A 29.86 1011 N/A N/A
7:54 am 07:54 undefined 62 16.7 50 10 65 65 undefined N/A 29.88 1012 N/A N/A
8:54 am 08:54 undefined 63 17.2 49 9.4 60 60 undefined N/A 29.87 1012 N/A N/A
9:54 am 09:54 undefined 64 17.8 49 9.4 58 58 undefined N/A 29.87 1012 N/A N/A
10:54 am 10:54 undefined 65 18.3 51 10.6 61 61 undefined N/A 29.86 1011 N/A N/A
11:54 am 11:54 undefined 65 18.3 51 10.6 61 61 undefined N/A 29.87 1011 N/A N/A
12:54 pm 12:54 undefined 70 21.1 54 12.2 57 57 undefined N/A 29.86 1011 N/A N/A
1:54 pm 13:54 undefined 76 24.4 58 14.4 54 54 undefined N/A 29.85 1011 N/A N/A
2:54 pm 14:54 undefined 80 26.7 60 15.6 51 51 undefined N/A 29.80 1009 N/A N/A
3:54 pm 15:54 undefined 80 26.7 58 14.4 47 47 undefined N/A 29.75 1007 N/A N/A
4:54 pm 16:54 undefined 80 26.7 59 15 49 49 undefined N/A 29.73 1007 N/A N/A
5:54 pm 17:54 undefined 80 26.7 59 15 49 49 undefined N/A 29.73 1007 N/A N/A
6:54 pm 18:54 undefined 79 26.1 58 14.4 49 49 undefined N/A 29.72 1006 N/A N/A
7:54 pm 19:54 undefined 77 25 57 13.9 50 50 undefined N/A 29.71 1006 N/A N/A
8:54 pm 20:54 undefined 76 24.4 57 13.9 52 52 undefined N/A 29.71 1006 N/A N/A
9:54 pm 21:54 undefined 74 23.3 59 15 60 60 undefined N/A 29.72 1006 N/A N/A
10:54 pm 22:54 undefined 67 19.4 62 16.7 84 84 undefined N/A 29.74 1007 N/A 0.02 0.51
11:54 pm 23:54 undefined 65 18.3 62 16.7 90 90 undefined N/A 29.70 1006 N/A 0.22 5.59

Powered by AerisWeather